Time,TemperatureF,DewpointF,PressureIn,WindDirection,WindDirectionDegrees,WindSpeedMPH,WindSpeedGustMPH,Humidity,HourlyPrecipIn,Conditions,Clouds,dailyrainin,SoftwareType,DateUTC
2013-02-11 00:00:00,25.0,18.0,30.30,ESE,104,0.0,0.0,78,-99.99,,,-99.99,,2013-02-11 05:00:00,
2013-02-11 00:22:00,25.0,18.0,30.30,ESE,104,0.0,0.0,78,-99.99,,,-99.99,,2013-02-11 05:22:00,
2013-02-11 00:32:00,25.0,18.0,30.30,ESE,104,0.0,0.0,78,-99.99,,,-99.99,,2013-02-11 05:32:00,
2013-02-11 00:42:00,25.0,18.0,30.30,ESE,104,0.0,0.0,78,-99.99,,,-99.99,,2013-02-11 05:42:00,
2013-02-11 00:53:00,25.0,18.0,30.30,ESE,104,0.0,0.0,78,-99.99,,,-99.99,,2013-02-11 05:53:00,
2013-02-11 01:00:00,25.0,19.0,30.27,ENE,62,0.0,0.0,81,-99.99,,,-99.99,,2013-02-11 06:00:00,
2013-02-11 01:22:00,25.0,19.0,30.27,ENE,62,0.0,0.0,81,-99.99,,,-99.99,,2013-02-11 06:22:00,
2013-02-11 01:32:00,25.0,19.0,30.27,ENE,62,0.0,0.0,81,-99.99,,,-99.99,,2013-02-11 06:32:00,
2013-02-11 01:42:00,25.0,19.0,30.27,ENE,62,0.0,0.0,81,-99.99,,,-99.99,,2013-02-11 06:42:00,
2013-02-11 01:52:00,25.0,19.0,30.27,ENE,62,0.0,0.0,81,-99.99,,,-99.99,,2013-02-11 06:52:00,
2013-02-11 02:00:00,26.0,19.0,30.27,South,172,0.0,0.0,78,-99.99,,,-99.99,,2013-02-11 07:00:00,
2013-02-11 02:22:00,26.0,19.0,30.27,South,172,0.0,0.0,78,-99.99,,,-99.99,,2013-02-11 07:22:00,
2013-02-11 02:32:00,26.0,19.0,30.27,South,172,0.0,0.0,78,-99.99,,,-99.99,,2013-02-11 07:32:00,
2013-02-11 02:42:00,26.0,19.0,30.27,South,172,0.0,0.0,78,-99.99,,,-99.99,,2013-02-11 07:42:00,
2013-02-11 02:52:00,26.0,19.0,30.27,South,172,0.0,0.0,78,-99.99,,,-99.99,,2013-02-11 07:52:00,
2013-02-11 03:00:00,26.0,20.0,30.21,NNW,341,0.0,0.0,80,-99.99,,,-99.99,,2013-02-11 08:00:00,
2013-02-11 03:22:00,26.0,20.0,30.21,NNW,341,0.0,0.0,80,-99.99,,,-99.99,,2013-02-11 08:22:00,
2013-02-11 03:32:00,26.0,20.0,30.21,NNW,341,0.0,0.0,80,-99.99,,,-99.99,,2013-02-11 08:32:00,
2013-02-11 03:42:00,26.0,20.0,30.21,NNW,341,0.0,0.0,80,-99.99,,,-99.99,,2013-02-11 08:42:00,
2013-02-11 03:52:00,26.0,20.0,30.21,NNW,341,0.0,0.0,80,-99.99,,,-99.99,,2013-02-11 08:52:00,
2013-02-11 04:00:00,27.0,21.0,30.21,ENE,68,0.0,0.0,79,-99.99,,,-99.99,,2013-02-11 09:00:00,
2013-02-11 04:22:00,27.0,21.0,30.21,ENE,68,0.0,0.0,79,-99.99,,,-99.99,,2013-02-11 09:22:00,
2013-02-11 04:32:00,27.0,21.0,30.21,ENE,68,0.0,0.0,79,-99.99,,,-99.99,,2013-02-11 09:32:00,
2013-02-11 04:42:00,27.0,21.0,30.21,ENE,68,0.0,0.0,79,-99.99,,,-99.99,,2013-02-11 09:42:00,
2013-02-11 04:52:00,27.0,21.0,30.21,ENE,68,0.0,0.0,79,-99.99,,,-99.99,,2013-02-11 09:52:00,
2013-02-11 05:00:00,28.0,21.0,30.15,ENE,74,0.0,5.0,77,-99.99,,,-99.99,,2013-02-11 10:00:00,
2013-02-11 05:32:00,28.0,21.0,30.15,ENE,74,0.0,5.0,77,-99.99,,,-99.99,,2013-02-11 10:32:00,
2013-02-11 05:42:00,28.0,21.0,30.15,ENE,74,0.0,5.0,77,-99.99,,,-99.99,,2013-02-11 10:42:00,
2013-02-11 05:52:00,28.0,21.0,30.15,ENE,74,0.0,5.0,77,-99.99,,,-99.99,,2013-02-11 10:52:00,
2013-02-11 06:00:00,29.0,23.0,30.12,NNE,16,1.0,4.0,81,-99.99,,,-99.99,,2013-02-11 11:00:00,
2013-02-11 06:22:00,29.0,23.0,30.12,NNE,16,1.0,4.0,81,-99.99,,,-99.99,,2013-02-11 11:22:00,
2013-02-11 06:32:00,29.0,23.0,30.12,NNE,16,1.0,4.0,81,-99.99,,,-99.99,,2013-02-11 11:32:00,
2013-02-11 06:42:00,29.0,23.0,30.12,NNE,16,1.0,4.0,81,-99.99,,,-99.99,,2013-02-11 11:42:00,
2013-02-11 06:52:00,29.0,23.0,30.12,NNE,16,1.0,4.0,81,-99.99,,,-99.99,,2013-02-11 11:52:00,
2013-02-11 07:00:00,30.0,26.0,30.09,NNE,31,0.0,2.0,87,-99.99,,,-99.99,,2013-02-11 12:00:00,
2013-02-11 07:22:00,30.0,26.0,30.09,NNE,31,0.0,2.0,87,-99.99,,,-99.99,,2013-02-11 12:22:00,
2013-02-11 07:32:00,30.0,26.0,30.09,NNE,31,0.0,2.0,87,-99.99,,,-99.99,,2013-02-11 12:32:00,
2013-02-11 07:42:00,30.0,26.0,30.09,NNE,31,0.0,2.0,87,-99.99,,,-99.99,,2013-02-11 12:42:00,
2013-02-11 07:52:00,30.0,26.0,30.09,NNE,31,0.0,2.0,87,-99.99,,,-99.99,,2013-02-11 12:52:00,
2013-02-11 08:00:00,31.0,29.0,30.03,ENE,72,0.0,4.0,92,-99.99,,,-99.99,,2013-02-11 13:00:00,
2013-02-11 08:22:00,31.0,29.0,30.03,ENE,72,0.0,4.0,92,-99.99,,,-99.99,,2013-02-11 13:22:00,
2013-02-11 08:33:00,31.0,29.0,30.03,ENE,72,0.0,4.0,92,-99.99,,,-99.99,,2013-02-11 13:33:00,
2013-02-11 08:42:00,31.0,29.0,30.03,ENE,72,0.0,4.0,92,-99.99,,,-99.99,,2013-02-11 13:42:00,
2013-02-11 08:52:00,31.0,29.0,30.03,ENE,72,0.0,4.0,92,-99.99,,,-99.99,,2013-02-11 13:52:00,
2013-02-11 09:00:00,33.0,31.0,30.00,North,0,3.0,5.0,94,-99.99,,,-99.99,,2013-02-11 14:00:00,
2013-02-11 09:22:00,33.0,31.0,30.00,North,0,3.0,5.0,94,-99.99,,,-99.99,,2013-02-11 14:22:00,
2013-02-11 09:33:00,33.0,31.0,30.00,North,0,3.0,5.0,94,-99.99,,,-99.99,,2013-02-11 14:33:00,
2013-02-11 09:42:00,33.0,31.0,30.00,North,0,3.0,5.0,94,-99.99,,,-99.99,,2013-02-11 14:42:00,
2013-02-11 09:53:00,33.0,31.0,30.00,North,0,3.0,5.0,94,-99.99,,,-99.99,,2013-02-11 14:53:00,
2013-02-11 10:00:00,34.0,32.0,29.97,North,0,0.0,4.0,94,-99.99,,,-99.99,,2013-02-11 15:00:00,
2013-02-11 10:22:00,34.0,32.0,29.97,North,0,0.0,4.0,94,-99.99,,,-99.99,,2013-02-11 15:22:00,
2013-02-11 10:32:00,34.0,32.0,29.97,North,0,0.0,4.0,94,-99.99,,,-99.99,,2013-02-11 15:32:00,
2013-02-11 10:42:00,34.0,32.0,29.97,North,0,0.0,4.0,94,-99.99,,,-99.99,,2013-02-11 15:42:00,
2013-02-11 10:52:00,34.0,32.0,29.97,North,0,0.0,4.0,94,-99.99,,,-99.99,,2013-02-11 15:52:00,
2013-02-11 12:00:00,35.0,33.0,29.88,East,92,0.0,0.0,94,-99.99,,,-99.99,,2013-02-11 17:00:00,
2013-02-11 12:22:00,35.0,33.0,29.88,East,92,0.0,0.0,94,-99.99,,,-99.99,,2013-02-11 17:22:00,
2013-02-11 12:32:00,35.0,33.0,29.88,East,92,0.0,0.0,94,-99.99,,,-99.99,,2013-02-11 17:32:00,
2013-02-11 12:42:00,35.0,33.0,29.88,East,92,0.0,0.0,94,-99.99,,,-99.99,,2013-02-11 17:42:00,
2013-02-11 12:53:00,35.0,33.0,29.88,East,92,0.0,0.0,94,-99.99,,,-99.99,,2013-02-11 17:53:00,
2013-02-11 13:00:00,37.0,35.0,29.83,SW,236,0.0,0.0,94,-99.99,,,-99.99,,2013-02-11 18:00:00,
2013-02-11 13:22:00,37.0,35.0,29.83,SW,236,0.0,0.0,94,-99.99,,,-99.99,,2013-02-11 18:22:00,
2013-02-11 13:32:00,37.0,35.0,29.83,SW,236,0.0,0.0,94,-99.99,,,-99.99,,2013-02-11 18:32:00,
2013-02-11 13:42:00,37.0,35.0,29.83,SW,236,0.0,0.0,94,-99.99,,,-99.99,,2013-02-11 18:42:00,
2013-02-11 13:54:00,37.0,35.0,29.83,SW,236,0.0,0.0,94,-99.99,,,-99.99,,2013-02-11 18:54:00,
2013-02-11 14:00:00,39.0,37.0,29.80,SSE,162,2.0,4.0,93,-99.99,,,-99.99,,2013-02-11 19:00:00,
2013-02-11 14:22:00,39.0,37.0,29.80,SSE,162,2.0,4.0,93,-99.99,,,-99.99,,2013-02-11 19:22:00,
2013-02-11 14:32:00,39.0,37.0,29.80,SSE,162,2.0,4.0,93,-99.99,,,-99.99,,2013-02-11 19:32:00,
2013-02-11 14:42:00,39.0,37.0,29.80,SSE,162,2.0,4.0,93,-99.99,,,-99.99,,2013-02-11 19:42:00,
2013-02-11 14:52:00,39.0,37.0,29.80,SSE,162,2.0,4.0,93,-99.99,,,-99.99,,2013-02-11 19:52:00,
2013-02-11 15:00:00,40.0,38.0,29.77,South,174,0.0,4.0,93,-99.99,,,-99.99,,2013-02-11 20:00:00,
2013-02-11 15:22:00,40.0,38.0,29.77,South,174,0.0,4.0,93,-99.99,,,-99.99,,2013-02-11 20:22:00,
2013-02-11 15:32:00,40.0,38.0,29.77,South,174,0.0,4.0,93,-99.99,,,-99.99,,2013-02-11 20:32:00,
2013-02-11 15:42:00,40.0,38.0,29.77,South,174,0.0,4.0,93,-99.99,,,-99.99,,2013-02-11 20:42:00,
2013-02-11 15:52:00,40.0,38.0,29.77,South,174,0.0,4.0,93,-99.99,,,-99.99,,2013-02-11 20:52:00,
2013-02-11 16:00:00,40.0,39.0,29.71,SW,221,0.0,4.0,93,-99.99,,,-99.99,,2013-02-11 21:00:00,
2013-02-11 16:22:00,40.0,39.0,29.71,SW,221,0.0,4.0,93,-99.99,,,-99.99,,2013-02-11 21:22:00,
2013-02-11 16:32:00,40.0,39.0,29.71,SW,221,0.0,4.0,93,-99.99,,,-99.99,,2013-02-11 21:32:00,
2013-02-11 16:42:00,40.0,39.0,29.71,SW,221,0.0,4.0,93,-99.99,,,-99.99,,2013-02-11 21:42:00,
2013-02-11 16:52:00,40.0,39.0,29.71,SW,221,0.0,4.0,93,-99.99,,,-99.99,,2013-02-11 21:52:00,
2013-02-11 17:00:00,38.0,36.0,29.71,WNW,292,0.0,0.0,93,-99.99,,,-99.99,,2013-02-11 22:00:00,
2013-02-11 17:22:00,38.0,36.0,29.71,WNW,292,0.0,0.0,93,-99.99,,,-99.99,,2013-02-11 22:22:00,
2013-02-11 17:32:00,38.0,36.0,29.71,WNW,292,0.0,0.0,93,-99.99,,,-99.99,,2013-02-11 22:32:00,
2013-02-11 17:42:00,38.0,36.0,29.71,WNW,292,0.0,0.0,93,-99.99,,,-99.99,,2013-02-11 22:42:00,
2013-02-11 17:52:00,38.0,36.0,29.71,WNW,292,0.0,0.0,93,-99.99,,,-99.99,,2013-02-11 22:52:00,
2013-02-11 18:00:00,36.0,35.0,29.68,ENE,68,0.0,0.0,94,-99.99,,,-99.99,,2013-02-11 23:00:00,
2013-02-11 18:22:00,36.0,35.0,29.68,ENE,68,0.0,0.0,94,-99.99,,,-99.99,,2013-02-11 23:22:00,
2013-02-11 18:32:00,36.0,35.0,29.68,ENE,68,0.0,0.0,94,-99.99,,,-99.99,,2013-02-11 23:32:00,
2013-02-11 18:42:00,36.0,35.0,29.68,ENE,68,0.0,0.0,94,-99.99,,,-99.99,,2013-02-11 23:42:00,
2013-02-11 18:52:00,36.0,35.0,29.68,ENE,68,0.0,0.0,94,-99.99,,,-99.99,,2013-02-11 23:52:00,
2013-02-11 19:00:00,36.0,34.0,29.65,NW,307,2.0,2.0,95,-99.99,,,-99.99,,2013-02-12 00:00:00,
2013-02-11 19:22:00,36.0,34.0,29.65,NW,307,2.0,2.0,95,-99.99,,,-99.99,,2013-02-12 00:22:00,
2013-02-11 19:32:00,36.0,34.0,29.65,NW,307,2.0,2.0,95,-99.99,,,-99.99,,2013-02-12 00:32:00,
2013-02-11 19:42:00,36.0,34.0,29.65,NW,307,2.0,2.0,95,-99.99,,,-99.99,,2013-02-12 00:42:00,
2013-02-11 19:52:00,36.0,34.0,29.65,NW,307,2.0,2.0,95,-99.99,,,-99.99,,2013-02-12 00:52:00,
2013-02-11 20:00:00,35.0,34.0,29.65,West,270,0.0,2.0,95,-99.99,,,-99.99,,2013-02-12 01:00:00,
2013-02-11 20:22:00,35.0,34.0,29.65,West,270,0.0,2.0,95,-99.99,,,-99.99,,2013-02-12 01:22:00,
2013-02-11 20:32:00,35.0,34.0,29.65,West,270,0.0,2.0,95,-99.99,,,-99.99,,2013-02-12 01:32:00,
2013-02-11 20:42:00,35.0,34.0,29.65,West,270,0.0,2.0,95,-99.99,,,-99.99,,2013-02-12 01:42:00,
2013-02-11 20:52:00,35.0,34.0,29.65,West,270,0.0,2.0,95,-99.99,,,-99.99,,2013-02-12 01:52:00,
2013-02-11 21:00:00,36.0,34.0,29.65,North,3,0.0,3.0,95,-99.99,,,-99.99,,2013-02-12 02:00:00,
2013-02-11 21:22:00,36.0,34.0,29.65,North,3,0.0,3.0,95,-99.99,,,-99.99,,2013-02-12 02:22:00,
2013-02-11 21:32:00,36.0,34.0,29.65,North,3,0.0,3.0,95,-99.99,,,-99.99,,2013-02-12 02:32:00,
2013-02-11 21:42:00,36.0,34.0,29.65,North,3,0.0,3.0,95,-99.99,,,-99.99,,2013-02-12 02:42:00,
2013-02-11 21:53:00,36.0,34.0,29.65,North,3,0.0,3.0,95,-99.99,,,-99.99,,2013-02-12 02:53:00,
2013-02-11 22:00:00,36.0,35.0,29.68,NE,43,0.0,7.0,95,-99.99,,,-99.99,,2013-02-12 03:00:00,
2013-02-11 22:21:00,36.0,35.0,29.68,NE,43,0.0,7.0,95,-99.99,,,-99.99,,2013-02-12 03:21:00,
2013-02-11 22:32:00,36.0,35.0,29.68,NE,43,0.0,7.0,95,-99.99,,,-99.99,,2013-02-12 03:32:00,
2013-02-11 22:42:00,36.0,35.0,29.68,NE,43,0.0,7.0,95,-99.99,,,-99.99,,2013-02-12 03:42:00,
2013-02-11 22:52:00,36.0,35.0,29.68,NE,43,0.0,7.0,95,-99.99,,,-99.99,,2013-02-12 03:52:00,
2013-02-11 23:00:00,35.0,34.0,29.71,NE,47,0.0,0.0,95,-99.99,,,-99.99,,2013-02-12 04:00:00,
2013-02-11 23:21:00,35.0,34.0,29.71,NE,47,0.0,0.0,95,-99.99,,,-99.99,,2013-02-12 04:21:00,
2013-02-11 23:32:00,35.0,34.0,29.71,NE,47,0.0,0.0,95,-99.99,,,-99.99,,2013-02-12 04:32:00,
2013-02-11 23:42:00,35.0,34.0,29.71,NE,47,0.0,0.0,95,-99.99,,,-99.99,,2013-02-12 04:42:00,
2013-02-11 23:52:00,35.0,34.0,29.71,NE,47,0.0,0.0,95,-99.99,,,-99.99,,2013-02-12 04:52:00,